Location: B�rgermoos
(47.6500°N, 9.0667°E)
Time: 05:57:28
(UTC+00:00)

Tianhe-1 - Visible Passes

Search period start: 18 June 2021 00:00
Search period end: 28 June 2021 00:00
Orbit: 375 x 386 km, 41.5° (Epoch: 18 June)

Date Brightness Start Highest point End Pass type
(mag) Time Alt. Az. Time Alt. Az. Time Alt. Az.
22 Jun 3.0 02:25:05 11° SSW 02:27:02 16° SSE 02:29:07 10° ESE visible
23 Jun 3.4 01:26:43 12° SSE 01:26:43 12° SSE 01:27:32 10° SE visible
24 Jun 2.6 02:00:27 17° SSW 02:01:35 20° SSE 02:04:01 10° ESE visible
25 Jun 3.4 01:02:05 13° SE 01:02:05 13° SE 01:02:49 10° ESE visible
25 Jun 2.3 02:34:18 10° WSW 02:36:58 26° S 02:39:41 10° ESE visible
26 Jun 2.3 01:35:52 23° S 01:36:08 24° S 01:38:44 10° ESE visible
27 Jun 3.7 00:37:36 10° ESE 00:37:36 10° ESE 00:37:40 10° ESE visible
27 Jun 2.2 02:09:43 16° SW 02:11:31 26° S 02:14:12 10° SE visible
